Time,TemperatureF,DewpointF,PressureIn,WindDirection,WindDirectionDegrees,WindSpeedMPH,WindSpeedGustMPH,Humidity,HourlyPrecipIn,Conditions,Clouds,dailyrainin,SoftwareType,DateUTC
2013-02-21 00:00:00,40.0,34.3,30.09,SSE,147,6.0,13.0,80,0.00,BKN,,0.00,WeatherDisplay:10.37,2013-02-21 00:00:00,
2013-02-21 00:30:00,39.3,33.0,30.08,SSE,151,6.0,15.0,78,0.00,BKN,,0.00,WeatherDisplay:10.37,2013-02-21 00:30:00,
2013-02-21 01:00:00,38.6,32.6,30.09,North,358,2.0,10.0,79,0.00,BKN,,0.00,WeatherDisplay:10.37,2013-02-21 01:00:00,
2013-02-21 01:30:00,38.3,31.7,30.09,NW,314,1.0,8.0,77,0.00,BKN,,0.00,WeatherDisplay:10.37,2013-02-21 01:30:00,
2013-02-21 02:00:00,37.5,31.6,30.09,SSE,154,2.0,5.0,79,0.00,BKN,,0.00,WeatherDisplay:10.37,2013-02-21 02:00:00,
2013-02-21 02:30:00,36.6,31.0,30.09,SSE,151,0.0,3.0,80,0.00,BKN,,0.00,WeatherDisplay:10.37,2013-02-21 02:30:00,
2013-02-21 03:00:00,36.1,30.2,30.08,NNW,343,0.0,4.0,79,0.00,BKN,,0.00,WeatherDisplay:10.37,2013-02-21 03:00:00,
2013-02-21 03:30:00,35.8,29.6,30.09,South,176,1.0,6.0,78,0.00,BKN,,0.00,WeatherDisplay:10.37,2013-02-21 03:30:00,
2013-02-21 04:00:00,35.2,29.3,30.09,NW,318,0.0,3.0,79,0.00,BKN,,0.00,WeatherDisplay:10.37,2013-02-21 04:00:00,
2013-02-21 04:30:00,34.6,28.8,30.09,SSE,150,2.0,5.0,79,0.00,BKN,,0.00,WeatherDisplay:10.37,2013-02-21 04:30:00,
2013-02-21 05:00:00,34.9,28.7,30.10,South,173,1.0,8.0,78,0.00,BKN,,0.00,WeatherDisplay:10.37,2013-02-21 05:00:00,
2013-02-21 05:30:00,34.9,29.4,30.10,SSE,160,3.0,8.0,80,0.00,BKN,,0.00,WeatherDisplay:10.37,2013-02-21 05:30:00,
2013-02-21 06:00:00,34.7,29.2,30.10,SSW,196,1.0,8.0,80,0.00,BKN,,0.00,WeatherDisplay:10.37,2013-02-21 06:00:00,
2013-02-21 06:30:00,34.8,28.9,30.11,SSE,154,2.0,12.0,79,0.00,BKN,,0.00,WeatherDisplay:10.37,2013-02-21 06:30:00,
2013-02-21 07:00:00,34.7,29.2,30.12,SSE,155,3.0,12.0,80,0.00,BKN,,0.00,WeatherDisplay:10.37,2013-02-21 07:00:00,
2013-02-21 07:30:00,34.9,29.1,30.12,SSE,160,5.0,12.0,79,0.00,BKN,,0.00,WeatherDisplay:10.37,2013-02-21 07:30:00,
2013-02-21 08:00:00,35.0,29.1,30.13,SSE,153,3.0,12.0,79,0.00,BKN,,0.00,WeatherDisplay:10.37,2013-02-21 08:00:00,
2013-02-21 08:30:00,35.0,29.1,30.13,SSE,164,1.0,10.0,79,0.00,BKN,,0.00,WeatherDisplay:10.37,2013-02-21 08:30:00,
2013-02-21 09:00:00,35.5,29.0,30.14,SSE,147,1.0,10.0,77,0.00,BKN,,0.00,WeatherDisplay:10.37,2013-02-21 09:00:00,
2013-02-21 09:30:00,36.3,29.1,30.14,SSE,163,3.0,13.0,75,0.00,BKN,,0.00,WeatherDisplay:10.37,2013-02-21 09:30:00,
2013-02-21 10:00:00,36.9,29.7,30.14,SSE,149,6.0,12.0,75,0.00,BKN,,0.00,WeatherDisplay:10.37,2013-02-21 10:00:00,
2013-02-21 10:30:00,37.1,30.2,30.13,SSE,154,6.0,12.0,76,0.00,BKN,,0.00,WeatherDisplay:10.37,2013-02-21 10:30:00,
2013-02-21 11:00:00,36.9,30.0,30.14,SSE,158,3.0,13.0,76,0.00,BKN,,0.00,WeatherDisplay:10.37,2013-02-21 11:00:00,
2013-02-21 11:30:00,37.0,29.8,30.13,SSE,163,6.0,16.0,75,0.00,BKN,,0.00,WeatherDisplay:10.37,2013-02-21 11:30:00,
2013-02-21 12:00:00,38.0,29.8,30.12,SSE,166,8.0,15.0,72,0.00,BKN,,0.00,WeatherDisplay:10.37,2013-02-21 12:00:00,
2013-02-21 12:30:00,39.3,30.6,30.12,South,177,7.0,20.0,71,0.00,BKN,,0.00,WeatherDisplay:10.37,2013-02-21 12:30:00,
2013-02-21 13:00:00,38.8,29.9,30.12,SSE,166,6.0,17.0,70,0.00,BKN,,0.00,WeatherDisplay:10.37,2013-02-21 13:00:00,
2013-02-21 13:30:00,38.6,29.7,30.12,SE,140,5.0,15.0,70,0.00,BKN,,0.00,WeatherDisplay:10.37,2013-02-21 13:30:00,
2013-02-21 14:00:00,38.3,29.4,30.11,SSE,154,6.0,14.0,70,0.00,BKN,,0.00,WeatherDisplay:10.37,2013-02-21 14:00:00,
2013-02-21 14:30:00,40.3,29.5,30.12,SSE,162,2.0,12.0,65,0.00,BKN,,0.00,WeatherDisplay:10.37,2013-02-21 14:30:00,
2013-02-21 15:00:00,41.4,30.9,30.11,South,169,3.0,10.0,66,0.00,BKN,,0.00,WeatherDisplay:10.37,2013-02-21 15:00:00,
2013-02-21 15:30:00,40.5,30.4,30.12,SSE,149,5.0,13.0,67,0.00,BKN,,0.00,WeatherDisplay:10.37,2013-02-21 15:30:00,
2013-02-21 16:00:00,38.7,29.0,30.12,SE,140,5.0,12.0,68,0.00,BKN,,0.00,WeatherDisplay:10.37,2013-02-21 16:00:00,
2013-02-21 16:30:00,38.3,29.4,30.11,SSE,163,2.0,12.0,70,0.00,BKN,,0.00,WeatherDisplay:10.37,2013-02-21 16:30:00,
2013-02-21 17:00:00,37.5,28.6,30.11,South,169,1.0,10.0,70,0.00,BKN,,0.00,WeatherDisplay:10.37,2013-02-21 17:00:00,
2013-02-21 17:30:00,36.4,28.6,30.11,South,171,2.0,8.0,73,0.00,BKN,,0.00,WeatherDisplay:10.37,2013-02-21 17:30:00,
2013-02-21 18:00:00,35.7,28.2,30.11,SSE,158,2.0,12.0,74,0.00,BKN,,0.00,WeatherDisplay:10.37,2013-02-21 18:00:00,
2013-02-21 18:30:00,35.5,28.4,30.11,SE,141,5.0,12.0,75,0.00,BKN,,0.00,WeatherDisplay:10.37,2013-02-21 18:30:00,
2013-02-21 19:00:00,35.4,28.3,30.11,SE,141,5.0,12.0,75,0.00,BKN,,0.00,WeatherDisplay:10.37,2013-02-21 19:00:00,
2013-02-21 19:30:00,35.2,28.4,30.11,SSE,160,2.0,9.0,76,0.00,BKN,,0.00,WeatherDisplay:10.37,2013-02-21 19:30:00,
2013-02-21 20:00:00,34.9,28.1,30.11,SSE,168,1.0,8.0,76,0.00,BKN,,0.00,WeatherDisplay:10.37,2013-02-21 20:00:00,
2013-02-21 20:30:00,34.4,27.9,30.11,SSE,149,0.0,7.0,77,0.00,BKN,,0.00,WeatherDisplay:10.37,2013-02-21 20:30:00,
2013-02-21 21:00:00,34.0,27.8,30.11,SSE,157,2.0,9.0,78,0.00,BKN,,0.00,WeatherDisplay:10.37,2013-02-21 21:00:00,
2013-02-21 21:30:00,33.8,27.4,30.11,SSE,159,2.0,6.0,77,0.00,BKN,,0.00,WeatherDisplay:10.37,2013-02-21 21:30:00,
2013-02-21 22:00:00,34.0,27.8,30.11,SSE,159,0.0,6.0,78,0.00,BKN,,0.00,WeatherDisplay:10.37,2013-02-21 22:00:00,
2013-02-21 22:30:00,34.2,27.7,30.11,South,175,1.0,5.0,77,0.00,BKN,,0.00,WeatherDisplay:10.37,2013-02-21 22:30:00,
2013-02-21 23:00:00,34.0,27.5,30.11,South,178,0.0,6.0,77,0.00,BKN,,0.00,WeatherDisplay:10.37,2013-02-21 23:00:00,
2013-02-21 23:30:00,33.9,27.4,30.12,South,175,1.0,4.0,77,0.00,BKN,,0.00,WeatherDisplay:10.37,2013-02-21 23:30:00,